KZR905 UAAA-LTFM

Flight info

Callsign KZR905
Flight time N/A
Altitude 34000
Route EKLAT1B EKLAT Z370 TOMGO M610 DIVNO/K0841F360 N161 GASBI/N0453F360 N161 LEYLA N644 LAGAS N61 NOLGA UG261 TBN UM11 CRM UW71 BUK UA4 YAVRU UL615 ERSEN
Aircraft A320/M-SDE3FGHIRWY/LB1

Departure

Time 2026-04-20 11:19
Airport Almaty International Airport (UAAA)

Arrival

Time N/A
Airport İstanbul Airport (LTFM)
Time Latitude Longitude Altitude Speed Heading
2026-04-20 10:43 43.34573 77.01375 2226 ft 0 kts 284°
2026-04-20 10:46 43.34573 77.01376 2226 ft 0 kts 284°
2026-04-20 11:06 43.34573 77.01377 2225 ft 0 kts 284°
2026-04-20 11:11 43.34571 77.01383 2221 ft 2 kts 284°
2026-04-20 11:11 43.34567 77.01410 2220 ft 3 kts 282°
2026-04-20 11:12 43.34563 77.01436 2222 ft 2 kts 283°
2026-04-20 11:12 43.34558 77.01463 2222 ft 3 kts 294°
2026-04-20 11:12 43.34548 77.01486 2225 ft 3 kts 316°
2026-04-20 11:12 43.34534 77.01500 2222 ft 1 kts 336°
2026-04-20 11:13 43.34532 77.01501 2222 ft 0 kts 337°
2026-04-20 11:14 43.34552 77.01490 2224 ft 10 kts 340°
2026-04-20 11:14 43.34607 77.01550 2224 ft 8 kts 129°
2026-04-20 11:15 43.34591 77.01524 2223 ft 7 kts 250°
2026-04-20 11:15 43.34528 77.01557 2226 ft 17 kts 103°
2026-04-20 11:15 43.34521 77.01735 2224 ft 21 kts 92°
2026-04-20 11:15 43.34515 77.01951 2227 ft 24 kts 92°
2026-04-20 11:16 43.34530 77.02091 2227 ft 9 kts 33°
2026-04-20 11:16 43.34595 77.02115 2225 ft 10 kts 15°
2026-04-20 11:16 43.34659 77.02139 2225 ft 6 kts 15°
2026-04-20 11:16 43.34703 77.02157 2226 ft 8 kts 16°
2026-04-20 11:17 43.34779 77.02238 2223 ft 21 kts 75°
2026-04-20 11:17 43.34767 77.02473 2234 ft 25 kts 97°
2026-04-20 11:17 43.34786 77.02620 2234 ft 0 kts 57°
2026-04-20 11:18 43.34863 77.02781 2232 ft 55 kts 56°
2026-04-20 11:18 43.35212 77.03488 2235 ft 120 kts 56°
2026-04-20 11:18 43.35776 77.04634 2237 ft 168 kts 56°
2026-04-20 11:19 43.36455 77.06010 2787 ft 175 kts 56°
2026-04-20 11:19 43.37153 77.07402 3565 ft 179 kts 56°
2026-04-20 11:19 43.37876 77.08828 4263 ft 185 kts 54°
2026-04-20 11:19 43.38624 77.10201 4728 ft 179 kts 45°
2026-04-20 11:20 43.39481 77.11531 4838 ft 189 kts 43°
2026-04-20 11:20 43.40629 77.12445 4960 ft 195 kts
2026-04-20 11:20 43.41938 77.12234 5078 ft 189 kts 339°
2026-04-20 11:20 43.43137 77.11586 5210 ft 182 kts 335°
2026-04-20 11:21 43.44266 77.10832 5386 ft 179 kts 321°
2026-04-20 11:21 43.45160 77.09671 5557 ft 177 kts 303°
2026-04-20 11:21 43.45754 77.08201 5745 ft 176 kts 294°
2026-04-20 11:21 43.46239 77.06662 5931 ft 175 kts 291°
2026-04-20 11:22 43.46591 77.05046 5998 ft 180 kts 266°
2026-04-20 11:22 43.46107 77.03475 6019 ft 188 kts 224°
2026-04-20 11:22 43.45063 77.02323 6011 ft 196 kts 227°
2026-04-20 11:22 43.44182 77.00862 6026 ft 201 kts 233°
2026-04-20 11:23 43.43341 76.99325 6020 ft 201 kts 234°
2026-04-20 11:23 43.42510 76.97777 6018 ft 202 kts 234°
2026-04-20 11:23 43.41674 76.96218 6001 ft 201 kts 234°
2026-04-20 11:23 43.40855 76.94671 5765 ft 201 kts 235°
2026-04-20 11:24 43.40042 76.93114 5421 ft 200 kts 235°
2026-04-20 11:24 43.39232 76.91555 5124 ft 199 kts 236°
2026-04-20 11:24 43.38424 76.90005 4864 ft 197 kts 235°
2026-04-20 11:24 43.37622 76.88518 4666 ft 192 kts 227°
2026-04-20 11:25 43.36528 76.87476 4370 ft 192 kts 208°
2026-04-20 11:25 43.35322 76.86669 4076 ft 192 kts 205°
2026-04-20 11:25 43.34039 76.86201 4010 ft 192 kts 188°
2026-04-20 11:25 43.33154 76.86070 4012 ft 193 kts 184°
2026-04-20 11:26 43.31861 76.86370 4005 ft 191 kts 153°
2026-04-20 11:26 43.30526 76.87903 4011 ft 190 kts 123°
2026-04-20 11:26 43.30101 76.88955 4005 ft 183 kts 109°
2026-04-20 11:26 43.29834 76.91160 3984 ft 172 kts 84°
2026-04-20 11:27 43.30065 76.92749 3857 ft 168 kts 68°
2026-04-20 11:27 43.30386 76.93722 3741 ft 165 kts 59°
2026-04-20 11:27 43.31016 76.95030 3534 ft 164 kts 55°
2026-04-20 11:27 43.31659 76.96315 3333 ft 163 kts 55°
2026-04-20 11:28 43.32298 76.97599 3118 ft 163 kts 56°
2026-04-20 11:28 43.32932 76.98874 2942 ft 163 kts 54°
2026-04-20 11:28 43.33583 77.00148 2719 ft 163 kts 58°
2026-04-20 11:28 43.34227 77.01447 2463 ft 165 kts 53°
2026-04-20 11:29 43.34863 77.02747 2259 ft 163 kts 54°
2026-04-20 11:29 43.35420 77.03902 2226 ft 95 kts 56°
2026-04-20 11:29 43.35603 77.04278 2232 ft 34 kts 56°
2026-04-20 11:29 43.35722 77.04522 2233 ft 24 kts 57°
2026-04-20 11:30 43.35793 77.04678 2233 ft 0 kts 59°